Find ASCENT

NORAD ID: 51287 Int'l Des: 2021-118 Owner: AFRL Country: US operational
MEOCIRCULAR

Live Position

Loading 3D Globe...

About ASCENT

Description loading...

Upcoming Passes

Passes for default location (London). Set your location on the main map for personalized predictions.

Altitude History

Loading altitude history...

Two-Line Element Set

1 51287U 21118E 26109.05254623 .00000039 00000-0 00000+0 0 9992
2 51287 4.0242 77.9928 0002876 133.4481 226.6246 1.01226674 15728
Epoch: Apr 19, 2026 • Age: 20 hours

Current Status

Altitude 35532.9 km
Velocity 3.08 km/s
Sub-Earth Point -3.13°S, 145.04°W
Launch Date Dec 7, 2021
Age 4.3 years
Type other

Technical Details

Classification Payload
Mass 25.00 kg
Dry Mass 25.00 kg
Total Mass 25.00 kg
Length 0.30 m
Diameter 0.20 m
Span 0.30 m
Shape Box
Manufacturer RAYBL
Bus Type Cubesat 12U
Phase Status In Orbit
Owner/State AFRL/US

Most Searched